Elkins, WV

4:37 PM EDT on April 20, 2018 (GMT -0400)
Elkins-Randolph County

Weather History for KEKN - December, 2014

Change the Weather History Date:

Sunday, December 7, 2014

  Actual Average Record
Temperature  
Mean Temperature 38 °F 35 °F  
Max Temperature 47 °F 45 °F 76 °F (1951)
Min Temperature 29 °F 25 °F -4 °F (2008)
Degree Days  
Heating Degree Days 27 30  
Month to date heating degree days 160 205  
Since 1 July heating degree days 1516 1489  
Cooling Degree Days 0 0  
Month to date cooling degree days 0 0  
Year to date cooling degree days 505 475  
Moisture  
Dew Point 24 °F    
Average Humidity 64    
Maximum Humidity 100    
Minimum Humidity 28    
Precipitation  
Precipitation 0.00 in 0.11 in 1.80 in (2011)
Month to date precipitation 2.74 0.79  
Year to date precipitation 41.12 43.46  
Snow  
Snow 0.00 in 0.50 in 5.20 in (2008)
Month to date snowfall 0.0 3.2  
Since 1 September snowfall 7.6 8.8  
Snow Depth 0.00 in    
Sea Level Pressure  
Sea Level Pressure 30.50 in    
Wind  
Wind Speed 4 mph (North)    
Max Wind Speed 14 mph    
Max Gust Speed 17 mph    
Visibility 10 miles    
Events      
T = Trace of Precipitation, MM = Missing Value Source: NWS Daily Summary

Daily Weather History Graph

Daily Weather History Graph

Search for Another Location

Airport or City:

Astronomy

Dec. 07, 2014 Rise Set
Actual Time 7:24 AM EST 4:57 PM EST
Civil Twilight 6:54 AM EST 5:26 PM EST
Nautical Twilight 6:21 AM EST 6:00 PM EST
Astronomical Twilight 5:49 AM EST 6:32 PM EST
Moon 6:23 PM EST (12/7) 8:07 AM EST (12/7)
Length of Visible Light 10h 32m
Length of Day
9h 32m
Full, 98% of the Moon is Illuminated
Dec 7
Full
Dec 14
Last Quarter
Dec 21
New
Dec 28
First Quarter
Jan 4
Full

Hourly Weather History & Observations

Time (EST) Temp. Windchill Dew Point Humidity Pressure Visibility Wind Dir Wind Speed Gust Speed Precip Events Conditions
12:51 AM 33.1 °F 26.9 °F 30.9 °F 92% 30.42 in 10.0 mi NNW 6.9 mph - N/A   Overcast
1:51 AM 33.1 °F 26.9 °F 30.0 °F 89% 30.44 in 10.0 mi NNW 6.9 mph - N/A   Overcast
2:51 AM 33.1 °F 24.9 °F 27.0 °F 78% 30.46 in 10.0 mi NNW 10.4 mph - N/A   Overcast
3:51 AM 32.0 °F 24.8 °F 26.1 °F 79% 30.48 in 10.0 mi North 8.1 mph - N/A   Overcast
4:26 AM 32.0 °F 24.2 °F 24.1 °F 73% 30.43 in 10.0 mi North 9.2 mph - N/A   Scattered Clouds
4:51 AM 30.9 °F 26.2 °F 25.0 °F 79% 30.50 in 10.0 mi North 4.6 mph - N/A   Mostly Cloudy
5:51 AM 30.9 °F 26.2 °F 25.0 °F 79% 30.51 in 10.0 mi North 4.6 mph - N/A   Mostly Cloudy
6:51 AM 30.9 °F - 27.0 °F 85% 30.54 in 10.0 mi Calm Calm - N/A   Overcast
7:51 AM 28.9 °F - 28.0 °F 96% 30.56 in 9.0 mi Calm Calm - N/A   Mostly Cloudy
7:58 AM 28.9 °F - 28.0 °F 96% 30.48 in 7.0 mi Calm Calm - N/A   Scattered Clouds
8:51 AM 33.1 °F - 26.1 °F 75% 30.56 in 10.0 mi Calm Calm - N/A   Clear
9:51 AM 34.0 °F 28.0 °F 26.1 °F 73% 30.57 in 10.0 mi NNW 6.9 mph - N/A   Clear
10:51 AM 35.1 °F 27.9 °F 26.1 °F 70% 30.57 in 10.0 mi North 9.2 mph - N/A   Clear
11:51 AM 39.0 °F 34.8 °F 28.0 °F 65% 30.55 in 10.0 mi Variable 5.8 mph - N/A   Clear
12:51 PM 41.0 °F 37.1 °F 28.0 °F 60% 30.51 in 10.0 mi NNW 5.8 mph - N/A   Clear
1:51 PM 44.1 °F 40.1 °F 26.1 °F 49% 30.49 in 10.0 mi NW 6.9 mph - N/A   Clear
2:51 PM 46.0 °F 41.0 °F 25.0 °F 44% 30.48 in 10.0 mi North 10.4 mph - N/A   Clear
3:51 PM 46.0 °F 43.9 °F 15.1 °F 29% 30.49 in 10.0 mi ENE 4.6 mph - N/A   Clear
4:51 PM 41.0 °F - 19.0 °F 41% 30.51 in 10.0 mi Calm Calm - N/A   Clear
5:51 PM 35.1 °F - 19.9 °F 54% 30.52 in 10.0 mi Calm Calm - N/A   Clear
6:51 PM 32.0 °F 28.7 °F 25.0 °F 75% 30.53 in 10.0 mi Variable 3.5 mph - N/A   Clear
7:51 PM 30.9 °F - 24.1 °F 76% 30.53 in 10.0 mi Calm Calm - N/A   Clear
8:51 PM 36.0 °F 32.1 °F 14.0 °F 41% 30.51 in 10.0 mi Variable 4.6 mph - N/A   Clear
9:51 PM 34.0 °F - 15.1 °F 46% 30.51 in 10.0 mi North - - N/A   Clear
10:51 PM 35.1 °F - 12.0 °F 39% 30.50 in 10.0 mi Calm Calm - N/A   Clear
11:51 PM 34.0 °F 31.0 °F 10.9 °F 38% 30.48 in 10.0 mi SE 3.5 mph - N/A   Clear